Regional Weather Roundup
Issued by NWS Upton, NY

Current Version | Previous Version | Text Only | Print | Product List | Glossary On
Versions: 1 2 3 4 5 6 7 8 9 10 11 12 13 14 15 16 17 18 19 20 21 22 23 24 25 26 27 28 29 30 31 32 33 34 35 36 37 38 39 40 41 42 43 44 45 46
000
ASUS41 KOKX 050705
RWROKX

REGIONAL WEATHER ROUNDUP
NATIONAL WEATHER SERVICE NEW YORK NY
200 AM EST THU MAR 05 2015

NOTE: "FAIR" INDICATES FEW OR NO CLOUDS BELOW 12,000 FEET WITH NO
SIGNIFICANT WEATHER AND/OR OBSTRUCTIONS TO VISIBILITY.

NYZ071-072-176-178-NJZ106-104-050800-
NEW YORK CITY METRO AREA


CITY           SKY/WX    TMP DP  RH WIND       PRES   REMARKS
CENTRAL PARK   LGT RAIN  38  35  89 W5        29.92R FOG     WCI  34
LAGUARDIA APRT LGT RAIN  39  35  86 NW8       29.90R WCI  33
KENNEDY INTL   LGT RAIN  40  36  86 W7        29.91S
NEWARK/LIBERTY LGT RAIN  39  37  92 W5        29.90S FOG
BRNX BOT. GARD   N/A     39  36  87 W7        29.92S WCI  34
TETERBORO      LGT RAIN  38  35  89 CALM      29.89S
$$

NYZ177-179-078>081-050800-
LONG ISLAND NEW YORK

CITY           SKY/WX    TMP DP  RH WIND       PRES   REMARKS
FARMINGDALE    LGT RAIN  39  37  92 NW5       29.90S FOG
ISLIP          LGT RAIN  38  37  97 W6        29.88S FOG     WCI  33
SHIRLEY        LGT RAIN  39  37  92 W5        29.90S FOG
WESTHAMPTON    LGT RAIN N/A N/A N/A W5        29.89F
MONTAUK POINT    N/A     38  36  92 W7        29.88S WCI  33
$$

NYZ052-065-067-050800-
HUDSON VALLEY

CITY           SKY/WX    TMP DP  RH WIND       PRES   REMARKS
WHITE PLAINS   LGT RAIN  36  34  92 NW10      29.87R FOG     WCI  28
NEWBURGH       LGT RAIN  39  34  81 W12       29.90S FOG     WCI  32
MONTGOMERY     MIX PCPN  34  32  92 W5        29.91R WCI  30
POUGHKEEPSIE   LGT SNOW  34  31  88 CALM      29.91S FOG
ALBANY         CLOUDY    32  21  64 NW9       29.94F WCI  24
$$

NJZ001-105-106-008-010-013-015-019>022-104-050800-
NEW JERSEY

CITY           SKY/WX    TMP DP  RH WIND       PRES   REMARKS
NEWARK/LIBERTY LGT RAIN  39  37  92 W5        29.90S FOG
TETERBORO      LGT RAIN  38  35  89 CALM      29.89S
CALDWELL       LGT RAIN  36  34  92 W3        29.91R FOG
MORRISTOWN     RAIN      39  36  87 NW5       29.91S
SOMERVILLE     LGT RAIN  37  34  89 CALM      29.90R FOG
SUSSEX         LGT SNOW  34  30  85 N3        29.93R FOG
ANDOVER          N/A     33  32  96 VRB3      29.91R
TRENTON        LGT RAIN  38  34  85 NW5       29.92R WCI  34
MILLVILLE      LGT RAIN N/A N/A N/A NW6       29.94S
ATLANTIC CITY  LGT RAIN  40  39  97 NW8       29.93F FOG     WCI  34
WRIGHTSTOWN    LGT RAIN  38  38  99 NW6       29.90R WCI  34
TOMS RIVER     CLOUDY    43  37  81 NW6       29.93S
BELMAR         CLOUDY    39  34  81 W7        29.91S WCI  34
$$

PAZ047>061-062-071-050800-
EASTERN PENNSYLVANIA

CITY           SKY/WX    TMP DP  RH WIND       PRES   REMARKS
PHILADELPHIA   LGT RAIN  39  36  89 NW6       29.97R WCI  35
ALLENTOWN      MIX PCPN  35  32  88 W6        29.95R WCI  30
SCRANTON       LGT SNOW  32  29  88 CALM      29.94R FOG
$$

CTZ002-004>006-009-010-012-RIZ004-006-007-MAZ004-011-015-050800-
SOUTHERN NEW ENGLAND
 IN CT

CITY           SKY/WX    TMP DP  RH WIND       PRES   REMARKS
BRADLEY INTL   CLOUDY    37  24  59 NW9       29.89R WCI  30
HARTFORD       LGT SNOW  34  29  82 NW7       29.91R WCI  28
DANBURY        LGT RAIN  36  32  85 NW5       29.89R FOG     WCI  32
WTRBRY/OXFORD  CLOUDY    36  28  75 N13       29.88R WCI  27
BRIDGEPORT     LGT RAIN  35  35 100 SW5       29.89R FOG     WCI  31
MERIDEN        LGT RAIN  36  31  82 N10       29.89R WCI  28
NEW HAVEN      LGT RAIN  37  36  96 NW3       29.88R FOG
CHESTER        LGT RAIN  37  36  93 NW5       29.86S WCI  34
GROTON         LGT RAIN  34  34 100 SW6       29.86F VSB 1   WCI  29
WILLIMANTIC    FLURRIES  35  31  85 N7        29.88R WCI  29

 IN RI

CITY           SKY/WX    TMP DP  RH WIND       PRES   REMARKS
PROVIDENCE     LGT RAIN  36  34  92 CALM      29.87R FOG
BLOCK ISLAND   CLOUDY    37  34  87 W9        29.86S VSB 1/2 WCI  31
WESTERLY       LGT RAIN  35  35 100 SW5       29.86F VSB 1/2 WCI  31

 IN MA

CITY           SKY/WX    TMP DP  RH WIND       PRES   REMARKS
BOSTON         CLOUDY    38  27  64 W8        29.86R WCI  32
WORCESTER      CLOUDY    33  23  66 W14       29.82F WCI  23
WESTFIELD      CLOUDY    36  22  56 NW14G20   29.89S WCI  27
PROVINCETOWN   CLOUDY    36  32  87 SW8       29.87R WCI  29
NANTUCKET      MIX PCPN  35  34  96 SW6       29.86F VSB 1/2 WCI  30
$$

ANZ330-335-338-340-345-350-353-355-050800-
COASTAL MARINE OBSERVATIONS


STATION/POSITION TIME  SKY/WX   TEMP    WIND        PRES    VSBY  WAVE
                                AIR SEA DIR/SP/G                  HT/PER
                 (UTC)          (F)     (DEG/KT/KT) (MB)    (MI)  (FT/S)
NY HARB ENTRANCE 0700            39 38  280/ 10/ 12 1012.7          3/ 8
4S FIRE IS       0700               33                N/A           5/ 9
20S FIRE ISLAND  0600               34              1013.0          5/ 8
23SW MTP         0700                                 N/A           7/ 9
HUDSON CANYON    NOT AVBL
EXECUTION ROCKS  NOT AVBL
WESTERN LI SOUND NOT AVBL
CENTRAL LI SOUND NOT AVBL
EASTERN LI SOUND NOT AVBL
ROBBINS REEF     0600            40     290/  8/  8 1011.7
$$


>>>>>>>>>>>>>>>>>>>>>>>>>>>> KEY <<<<<<<<<<<<<<<<<<<<<<<<<<<
>                                                          <
>     SKY/WX - SKY CONDITION/PRESENT WEATHER               <
>     TMP    - TEMPERATURE IN FAHRENHEIT                   <
>     DP     - DEWPOINT IN FAHRENHEIT                      <
>     RH     - RELATIVE HUMIDITY IN PERCENT                <
>     WIND   - DIRECTION AND SPEED IN MPH                  <
>     PRES   - MEAN SEA LEVEL PRESSURE IN INCHES OF HG     <
>     WCI    - WIND CHILL INDEX                            <
>     VSB    - VISIBILITY IN MILES                         <
>     HX     - HEAT INDEX                                  <
>     TC     - TEMPERATURE IN CELSIUS                      <
>     VRB    - VARIABLE WIND DIRECTION                     <
>                                                          <
>>>>>>>>>>>>>>>>>>>>>>>>>>>> KEY <<<<<<<<<<<<<<<<<<<<<<<<<<<





USA.gov is the U.S. government's official web portal to all federal, state and local government web resources and services.